cover

Ron Trent - Prescription (Original Mix)

Get it on iTunes StoreListen on Apple Music

Trackname / Key / BPM / Publish dateArtists, Remixers / Label
121 bpm, 7A / D minor, 2017-03-10, Deep House,  1  24

Tracks in release Word, Sound & Power

#Trackname / Key / BPM / Publish dateArtists, Remixers / Label
1 123 bpm, 2A / Eb minor, 2017-03-10, Deep House,  10  24
2 121 bpm, 7A / D minor, 2017-03-10, Deep House,  1  24
3 122 bpm, 10A / B minor, 2017-03-10, Deep House,  2  24
4 123 bpm, 8A / A minor, 2017-03-10, Deep House,  0  24
5 115 bpm, 8A / A minor, 2017-03-10, Deep House,  4  24
6 123 bpm, 10A / B minor, 2017-03-10, Deep House,  0  24
7 124 bpm, 6B / Bb major, 2017-03-10, Deep House,  2  24
8 126 bpm, 10A / B minor, 2017-03-10, Deep House,  0  24
9 124 bpm, 8A / A minor, 2017-03-10, Deep House,  0  24
10 122 bpm, 2A / Eb minor, 2017-03-10, Deep House,  0  24
11 120 bpm, 10A / B minor, 2017-03-10, Deep House,  1  24
12 124 bpm, 8A / A minor, 2017-03-10, Deep House,  0  24
13 123 bpm, 8A / A minor, 2017-03-10, Deep House,  0  24
14 120 bpm, 10B / D major, 2017-03-10, Deep House,  0  24
15 115 bpm, 11B / A major, 2017-03-10, Deep House,  1  24
16 123 bpm, 11B / A major, 2017-03-10, Deep House,  1  24
17 122 bpm, 8A / A minor, 2017-03-10, Deep House,  0  24
18 123 bpm, 8A / A minor, 2017-03-10, Deep House,  2  24
19 123 bpm, 3A / Bb minor, 2017-03-10, Deep House,  0  24
20 120 bpm, 8A / A minor, 2017-03-10, Deep House,  0  24
21 123 bpm, 6B / Bb major, 2017-03-10, Deep House,  0  24
22 124 bpm, 8A / A minor, 2017-03-10, Deep House,  0  24
23 119 bpm, 3A / Bb minor, 2017-03-10, Deep House,  0  24
24 125 bpm, 8A / A minor, 2017-03-10, Deep House,  0  24

Recommendations

#Trackname / Key / BPM / Publish dateArtists, Remixers / Label
1 120 bpm, 8A / A minor, 2015-04-28, House,  22  1   11
2 121 bpm, 8A / A minor, 2018-03-16, Melodic House & Techno,  10  1   8
3 119 bpm, 2A / Eb minor, 2017-10-27, Afro House,  9  1   2
4 123 bpm, 10A / B minor, 2018-03-23, Afro House,  7  1   2
1
5 116 bpm, 3A / Bb minor, 2017-06-06, Electronica,  5  1   3
6 127 bpm, 4A / F minor, 2017-12-07, House,  4  1   3
7 128 bpm, 1A / Ab minor, 2018-01-19, Dance,  3  1   1
8 126 bpm, 8A / A minor, 2018-02-23, Minimal,  1  1   3
9 120 bpm, 11B / A major, 2017-10-09, Deep House,  1  1   2

Charts

ArtistTitleGenresPublish date
LaoluLaolu's He A Savage ChartsElectronica, House, Deep House, Minimal, Dance, Afro House, Melodic House & Techno 2018-03-26
×

Sign in

Sign in to access your personalized pages, follow artists and labels you love, and create playlists fromyour favorite tracks.

Please wait...